Погода в Игре

Россия / Удмуртская Республика     57°32′24″N   53°05′10″E
темп.,
°C
ветер,
м/с
пор.,
м/с
влажн.,
%
обл.,
%
осадки,
мм/ч
давл.,
гПа
погр.,
м
20 июня, вс
вс2001:00+19зсз413780 0.2 1015506
04:00+18ссз411852 0.2 1017543
07:00+19с48670 0.0 1018593
10:00+21с58390 0.0 10201078
13:00+22ссз57322 0.0 10211526
16:00+22ссз47320 0.0 10211708
19:00+21с25510 0.0 1020269
22:00+16св226067 0.0 102126
21 июня, пн
пн2101:00+13юв226199 0.0 102220
04:00+14юв255659 0.0 1023102
07:00+14юв376291 0.0 1023254
10:00+17ююв37625 0.1 1022342
13:00+22ююз355893 0.0 1020806
16:00+27зюз3653100 0.0 10191349
19:00+25з2566100 0.1 1017220
22:00+18юв019492 0.9 101911
22 июня, вт
вт2201:00+18зюз229657 0.4 101932
04:00+18з269765 0.4 1019106
07:00+20з269210 0.0 1019160
10:00+28сз35462 0.0 1019858
13:00+30сз574013 0.0 10192494
16:00+31сз56366 0.0 10182508
19:00+23сз496998 0.1 1018265
22:00+21з411813 0.1 1019277
23 июня, ср
ср2301:00+18с129210 0.4 101938
04:00+17з23955 0.4 101955
07:00+21ссз248416 0.0 1019216
10:00+28сз23518 0.0 1019836
13:00+31ссз454384 0.0 10191991
16:00+30ссз354549 0.0 10192505
19:00+19зсз4898100 23.9 1019202
22:00+18сз1198100 26.1 102121
24 июня, чт
чт2401:00+18вюв1199100 0.4 101917
04:00+18зюз0098100 0.5 102013
07:00+20з119496 0.0 1020225
10:00+25з2365100 0.0 1019724
13:00+28з3351100 0.0 10181154
16:00+29зсз4550100 0.0 10161574
19:00+22св2490100 3.3 1015114
22:00+18зюз2292100 10.3 101525